Location: Makanda
(37.6176°N, 89.2090°W)
Time: 23:30:15
(UTC+00:00)

Nadezhda 1 Rocket - Pass Details

Date: 23 September 2019
Orbit: 942 x 1005 km, 83.0° (Epoch: 14 October)

Event Time Altitude Azimuth Distance (km) Brightness Sun altitude
Rises 00:33:24 0° 185° (S) 3,593 7.0 -8.6°
Reaches altitude 10° 00:35:52 10° 185° (S) 2,650 6.3 -9.1°
Maximum altitude 00:41:55 90° 260° (W) 948 4.0 -10.3°
Drops below altitude 10° 00:48:02 10° 7° (N) 2,674 6.3 -11.5°
Sets 00:50:32 0° 7° (N) 3,628 7.0 -12.0°
